Location: Newark
(23.1300°N, 73.6109°E)
Time: 22:48:26
(UTC+00:00)

N. Korean satellite - Visible Passes

Search period start: 27 July 2021 00:00
Search period end: 06 August 2021 00:00
Orbit: 451 x 497 km, 97.2° (Epoch: 26 July)

Date Brightness Start Highest point End Pass type
(mag) Time Alt. Az. Time Alt. Az. Time Alt. Az.
27 Jul 6.9 00:06:54 10° NNE 00:10:24 66° E 00:13:51 10° S visible
27 Jul 9.0 23:40:04 10° NE 23:42:57 23° E 23:45:46 10° SSE visible
30 Jul 8.2 23:50:35 10° NNE 23:53:47 34° E 23:56:57 10° SSE visible
31 Jul 9.6 23:24:34 10° ENE 23:26:15 13° E 23:27:55 10° SE visible
03 Aug 7.4 00:01:11 10° NNE 00:04:35 52° E 00:07:55 10° S visible
03 Aug 9.3 23:34:33 10° NE 23:37:03 19° E 23:39:32 10° SE visible
